KA7RAI Weather Reports


time (UTC)temp
C
wind
direction
speed
KPH
gust
KPH
rain 1hr
cm
rain 24hr
cm
rain mn
cm
humidity
%
barometer
mb
20260502130504 17 58 1.6 3.2 0.00 0.00 0.00 40 1013.0
20260502123503 16 74 1.6 1.6 0.00 0.00 0.00 45 1012.0
20260502123003 16 69 1.6 1.6 0.00 0.00 0.00 44 1012.0
20260502122504 16 61 1.6 3.2 0.00 0.00 0.00 43 1012.0
20260502122005 16 60 1.6 1.6 0.00 0.00 0.00 43 1012.0
20260502121504 16 77 1.6 3.2 0.00 0.00 0.00 42 1012.0
20260502121003 16 69 1.6 1.6 0.00 0.00 0.00 41 1012.0
20260502120503 16 105 1.6 1.6 0.00 0.00 0.00 41 1012.0
20260502115504 17 62 1.6 1.6 0.00 0.00 0.00 42 1012.0
20260502115004 17 74 1.6 1.6 0.00 0.00 0.00 41 1012.0
20260502114503 17 50 1.6 1.6 0.00 0.00 0.00 41 1012.0
20260502114005 17 144 0.0 0.0 0.00 0.00 0.00 40 1012.0
20260502113506 16 114 1.6 1.6 0.00 0.00 0.00 40 1012.0
20260502113004 16 64 1.6 1.6 0.00 0.00 0.00 41 1012.0
20260502112503 17 72 1.6 1.6 0.00 0.00 0.00 42 1012.0
20260502112003 17 95 1.6 1.6 0.00 0.00 0.00 39 1012.0
20260502111504 17 78 1.6 1.6 0.00 0.00 0.00 39 1012.0
20260502111004 17 57 1.6 1.6 0.00 0.00 0.00 39 1012.0
20260502110503 17 65 1.6 1.6 0.00 0.00 0.00 39 1012.0
20260502110004 17 63 1.6 1.6 0.00 0.00 0.00 39 1012.0
20260502105504 17 71 1.6 1.6 0.00 0.00 0.00 39 1012.0
20260502105004 17 77 1.6 1.6 0.00 0.00 0.00 39 1012.0
20260502104504 18 91 0.0 1.6 0.00 0.00 0.00 39 1012.0
20260502104003 18 52 1.6 1.6 0.00 0.00 0.00 38 1011.0
20260502103504 18 63 0.0 0.0 0.00 0.00 0.00 38 1011.0
20260502103003 18 95 1.6 1.6 0.00 0.00 0.00 38 1011.0
20260502102503 18 77 1.6 1.6 0.00 0.00 0.00 37 1011.0
20260502102003 18 49 1.6 1.6 0.00 0.00 0.00 37 1011.0
20260502101503 18 101 1.6 1.6 0.00 0.00 0.00 37 1011.0
20260502101004 18 38 3.2 6.4 0.00 0.00 0.00 37 1011.0
20260502100503 18 42 1.6 1.6 0.00 0.00 0.00 38 1011.0
20260502091503 20 57 1.6 3.2 0.00 0.00 0.00 33 1011.0
20260502091004 20 49 1.6 1.6 0.00 0.00 0.00 34 1011.0
20260502090503 20 76 1.6 6.4 0.00 0.00 0.00 33 1011.0
20260502071505 20 61 1.6 4.8 0.00 0.00 0.00 35 1011.0
20260502071004 20 66 1.6 4.8 0.00 0.00 0.00 35 1011.0
20260502070503 21 50 1.6 1.6 0.00 0.00 0.00 34 1011.0
20260502070003 21 69 1.6 1.6 0.00 0.00 0.00 33 1011.0
20260502065503 21 76 1.6 4.8 0.00 0.00 0.00 33 1011.0
20260502065003 21 49 1.6 1.6 0.00 0.00 0.00 33 1011.0
20260502064504 21 91 1.6 3.2 0.00 0.00 0.00 33 1011.0
20260502064004 21 91 0.0 3.2 0.00 0.00 0.00 33 1011.0
20260502063504 21 131 1.6 1.6 0.00 0.00 0.00 32 1011.0
20260502063003 22 127 0.0 1.6 0.00 0.00 0.00 32 1011.0
20260502062503 22 107 0.0 1.6 0.00 0.00 0.00 31 1011.0
20260502062003 22 117 0.0 3.2 0.00 0.00 0.00 32 1011.0
20260502061504 22 93 0.0 1.6 0.00 0.00 0.00 31 1010.0
20260502061005 22 127 0.0 1.6 0.00 0.00 0.00 31 1010.0
20260502060503 22 151 0.0 1.6 0.00 0.00 0.00 31 1010.0
20260502060003 22 151 1.6 3.2 0.00 0.00 0.00 31 1010.0
20260502055503 22 93 0.0 1.6 0.00 0.00 0.00 32 1010.0
20260502055004 22 81 1.6 1.6 0.00 0.00 0.00 32 1010.0
20260502054503 22 89 0.0 1.6 0.00 0.00 0.00 31 1010.0
20260502054003 22 95 0.0 1.6 0.00 0.00 0.00 31 1010.0
20260502053503 22 98 0.0 1.6 0.00 0.00 0.00 32 1010.0
20260502053003 22 102 1.6 1.6 0.00 0.00 0.00 32 1010.0
20260502052503 23 87 0.0 0.0 0.00 0.00 0.00 30 1010.0
20260502052004 23 113 0.0 1.6 0.00 0.00 0.00 31 1010.0
20260502051504 23 80 0.0 1.6 0.00 0.00 0.00 30 1010.0
20260502051003 23 202 0.0 0.0 0.00 0.00 0.00 31 1010.0
20260502050503 23 0 0.0 0.0 0.00 0.00 0.00 29 1010.0
20260502050003 23 81 0.0 1.6 0.00 0.00 0.00 28 1010.0
20260502045503 23 130 0.0 1.6 0.00 0.00 0.00 28 1010.0
20260502045004 24 117 0.0 1.6 0.00 0.00 0.00 28 1010.0
20260502044504 24 0 0.0 0.0 0.00 0.00 0.00 27 1010.0
20260502044003 25 105 0.0 0.0 0.00 0.00 0.00 27 1010.0
20260502043503 25 48 0.0 1.6 0.00 0.00 0.00 27 1010.0
20260502043003 25 65 0.0 0.0 0.00 0.00 0.00 26 1010.0
20260502042503 25 0 0.0 0.0 0.00 0.00 0.00 25 1010.0
20260502042005 25 170 0.0 1.6 0.00 0.00 0.00 25 1010.0
20260502041504 25 138 0.0 1.6 0.00 0.00 0.00 25 1010.0
20260502041003 25 191 0.0 1.6 0.00 0.00 0.00 25 1010.0
20260502040503 26 53 0.0 0.0 0.00 0.00 0.00 25 1010.0
20260502040004 26 214 0.0 1.6 0.00 0.00 0.00 24 1010.0
20260502035505 26 113 0.0 1.6 0.00 0.00 0.00 25 1010.0
20260502035003 26 0 0.0 0.0 0.00 0.00 0.00 24 1010.0
20260502034504 26 295 0.0 1.6 0.00 0.00 0.00 24 1010.0
20260502034003 26 100 0.0 1.6 0.00 0.00 0.00 25 1009.0
20260502033503 26 280 0.0 1.6 0.00 0.00 0.00 24 1009.0
20260502033003 27 59 0.0 0.0 0.00 0.00 0.00 22 1009.0
20260502032504 27 135 0.0 1.6 0.00 0.00 0.00 22 1009.0
20260502032004 27 0 0.0 0.0 0.00 0.00 0.00 22 1009.0
20260502031503 27 0 0.0 0.0 0.00 0.00 0.00 21 1009.0
20260502031004 27 96 0.0 0.0 0.00 0.00 0.00 21 1009.0
20260502030504 27 256 0.0 1.6 0.00 0.00 0.00 21 1009.0
20260502030003 28 268 0.0 1.6 0.00 0.00 0.00 20 1009.0
20260502025503 28 131 0.0 0.0 0.00 0.00 0.00 20 1009.0
20260502025003 28 167 0.0 0.0 0.00 0.00 0.00 20 1009.0
20260502024503 28 0 0.0 1.6 0.00 0.00 0.00 20 1009.0
20260502024003 28 0 0.0 0.0 0.00 0.00 0.00 20 1009.0
20260502023503 28 307 0.0 1.6 0.00 0.00 0.00 20 1009.0
20260502023004 29 261 0.0 1.6 0.00 0.00 0.00 19 1009.0
20260502022504 29 284 1.6 3.2 0.00 0.00 0.00 19 1009.0
20260502022003 30 298 0.0 3.2 0.00 0.00 0.00 19 1008.0
20260502021504 30 301 3.2 4.8 0.00 0.00 0.00 19 1008.0
20260502021003 30 302 1.6 3.2 0.00 0.00 0.00 19 1008.0
20260502020503 30 306 3.2 4.8 0.00 0.00 0.00 19 1008.0
20260502020003 31 260 1.6 3.2 0.00 0.00 0.00 18 1008.0
20260502015505 31 276 1.6 4.8 0.00 0.00 0.00 18 1008.0
20260502015003 31 309 1.6 6.4 0.00 0.00 0.00 18 1008.0
20260502014504 31 303 1.6 3.2 0.00 0.00 0.00 18 1008.0
20260502014004 31 304 3.2 6.4 0.00 0.00 0.00 18 1008.0
20260502013506 31 242 0.0 4.8 0.00 0.00 0.00 18 1008.0
20260502013003 31 198 1.6 3.2 0.00 0.00 0.00 18 1008.0
20260502012503 31 205 1.6 3.2 0.00 0.00 0.00 18 1008.0
20260502012003 32 145 3.2 4.8 0.00 0.00 0.00 18 1008.0
20260502011504 32 300 3.2 6.4 0.00 0.00 0.00 19 1008.0
20260502011004 32 265 3.2 9.7 0.00 0.00 0.00 19 1008.0
20260502010504 32 300 3.2 9.7 0.00 0.00 0.00 18 1008.0
20260502010004 32 167 1.6 3.2 0.00 0.00 0.00 19 1008.0
20260502005503 32 335 0.0 1.6 0.00 0.00 0.00 18 1008.0
20260502005003 32 308 3.2 6.4 0.00 0.00 0.00 19 1008.0
20260502004505 32 239 1.6 6.4 0.00 0.00 0.00 19 1008.0
20260502004004 32 299 3.2 4.8 0.00 0.00 0.00 19 1008.0
20260502003504 32 258 0.0 1.6 0.00 0.00 0.00 19 1008.0
20260502003003 32 291 3.2 8.0 0.00 0.00 0.00 19 1008.0
20260502002504 32 318 3.2 8.0 0.00 0.00 0.00 18 1008.0
20260502002003 32 279 3.2 8.0 0.00 0.00 0.00 19 1008.0
20260502001505 32 305 3.2 8.0 0.00 0.00 0.00 18 1008.0
20260502001004 32 311 4.8 8.0 0.00 0.00 0.00 18 1008.0
20260502000504 32 312 4.8 8.0 0.00 0.00 0.00 18 1008.0
20260502000004 32 286 1.6 4.8 0.00 0.00 0.00 19 1008.0
20260501235024 32 300 4.8 9.7 0.00 0.00 0.00 19 1008.0
20260501234503 32 314 1.6 4.8 0.00 0.00 0.00 20 1008.0
20260501234004 32 160 3.2 4.8 0.00 0.00 0.00 20 1008.0
20260501233503 32 293 3.2 11.3 0.00 0.00 0.00 20 1008.0
20260501233003 32 313 6.4 11.3 0.00 0.00 0.00 20 1008.0
20260501232505 32 326 6.4 12.9 0.00 0.00 0.00 20 1008.0
20260501232003 33 321 3.2 6.4 0.00 0.00 0.00 20 1008.0
20260501231503 33 157 1.6 3.2 0.00 0.00 0.00 19 1008.0
20260501231004 33 245 3.2 4.8 0.00 0.00 0.00 19 1008.0
20260501230503 32 306 3.2 4.8 0.00 0.00 0.00 19 1008.0
20260501230003 32 309 3.2 8.0 0.00 0.00 0.00 19 1008.0
20260501225503 32 315 1.6 3.2 0.00 0.00 0.00 19 1008.0
20260501225004 32 303 1.6 3.2 0.00 0.00 0.00 19 1008.0
20260501224505 32 294 3.2 12.9 0.00 0.00 0.00 19 1008.0
20260501224004 32 286 1.6 6.4 0.00 0.00 0.00 19 1008.0
20260501223503 32 121 1.6 4.8 0.00 0.00 0.00 19 1008.0
20260501223003 32 194 3.2 8.0 0.00 0.00 0.00 19 1009.0
20260501222504 32 201 1.6 3.2 0.00 0.00 0.00 18 1009.0
20260501222003 31 163 0.0 1.6 0.00 0.00 0.00 20 1009.0
20260501221504 32 159 3.2 6.4 0.00 0.00 0.00 19 1009.0
20260501221004 32 146 4.8 8.0 0.00 0.00 0.00 20 1009.0
20260501220503 32 164 3.2 6.4 0.00 0.00 0.00 20 1009.0
20260501220003 32 181 4.8 9.7 0.00 0.00 0.00 19 1009.0
20260501215504 32 317 3.2 6.4 0.00 0.00 0.00 18 1009.0
20260501215004 32 151 0.0 3.2 0.00 0.00 0.00 19 1009.0
20260501214504 31 147 1.6 3.2 0.00 0.00 0.00 20 1009.0
20260501214003 31 198 1.6 3.2 0.00 0.00 0.00 19 1009.0
20260501213504 31 156 3.2 6.4 0.00 0.00 0.00 19 1009.0
20260501213004 31 146 3.2 4.8 0.00 0.00 0.00 20 1009.0
20260501212505 32 305 1.6 3.2 0.00 0.00 0.00 19 1009.0
20260501212003 32 168 3.2 4.8 0.00 0.00 0.00 19 1009.0
20260501211503 31 274 3.2 6.4 0.00 0.00 0.00 19 1010.0
20260501211004 31 264 1.6 6.4 0.00 0.00 0.00 21 1010.0
20260501210504 31 166 3.2 4.8 0.00 0.00 0.00 21 1010.0
20260501210004 31 143 4.8 11.3 0.00 0.00 0.00 21 1010.0
20260501205504 31 162 3.2 6.4 0.00 0.00 0.00 21 1010.0
20260501205004 31 152 1.6 4.8 0.00 0.00 0.00 22 1010.0
20260501204503 31 348 1.6 4.8 0.00 0.00 0.00 22 1010.0
20260501204004 30 156 3.2 6.4 0.00 0.00 0.00 22 1010.0
20260501203503 30 183 6.4 9.7 0.00 0.00 0.00 22 1010.0
20260501203003 30 328 4.8 9.7 0.00 0.00 0.00 23 1010.0
20260501202504 29 161 3.2 4.8 0.00 0.00 0.00 24 1010.0
20260501202007 29 162 6.4 8.0 0.00 0.00 0.00 24 1010.0
20260501201503 30 144 3.2 8.0 0.00 0.00 0.00 24 1010.0
20260501201004 30 165 4.8 9.7 0.00 0.00 0.00 24 1010.0
20260501200504 30 164 4.8 6.4 0.00 0.00 0.00 24 1010.0
20260501200004 30 168 6.4 12.9 0.00 0.00 0.00 23 1010.0
20260501195504 30 150 3.2 4.8 0.00 0.00 0.00 23 1010.0
20260501195004 30 145 3.2 4.8 0.00 0.00 0.00 23 1010.0
20260501194504 30 318 3.2 8.0 0.00 0.00 0.00 23 1010.0
20260501194003 30 300 3.2 9.7 0.00 0.00 0.00 23 1010.0
20260501193504 30 306 6.4 9.7 0.00 0.00 0.00 23 1011.0
20260501193004 30 299 1.6 4.8 0.00 0.00 0.00 24 1011.0
20260501192503 29 319 1.6 6.4 0.00 0.00 0.00 25 1011.0
20260501192003 28 200 3.2 6.4 0.00 0.00 0.00 25 1011.0
20260501191503 28 160 3.2 4.8 0.00 0.00 0.00 26 1011.0
20260501191005 28 162 1.6 4.8 0.00 0.00 0.00 25 1011.0
20260501190504 29 168 4.8 14.5 0.00 0.00 0.00 24 1011.0
20260501190004 28 192 3.2 6.4 0.00 0.00 0.00 24 1011.0
20260501185504 28 312 4.8 6.4 0.00 0.00 0.00 26 1011.0
20260501185004 29 154 6.4 9.7 0.00 0.00 0.00 25 1011.0
20260501184504 29 144 1.6 4.8 0.00 0.00 0.00 26 1011.0
20260501184004 29 146 3.2 6.4 0.00 0.00 0.00 26 1011.0
20260501183504 29 155 3.2 8.0 0.00 0.00 0.00 26 1011.0
20260501183005 29 174 1.6 3.2 0.00 0.00 0.00 25 1011.0
20260501182503 28 246 1.6 3.2 0.00 0.00 0.00 26 1012.0
20260501182004 28 311 4.8 6.4 0.00 0.00 0.00 27 1012.0
20260501181503 28 290 4.8 11.3 0.00 0.00 0.00 27 1012.0
20260501181003 28 147 3.2 4.8 0.00 0.00 0.00 28 1012.0
20260501180505 27 155 1.6 4.8 0.00 0.00 0.00 28 1012.0
20260501180004 27 222 3.2 4.8 0.00 0.00 0.00 28 1012.0
20260501175503 27 155 3.2 6.4 0.00 0.00 0.00 28 1012.0
20260501175012 27 134 3.2 6.4 0.00 0.00 0.00 28 1012.0
20260501174503 27 206 1.6 6.4 0.00 0.00 0.00 30 1012.0
20260501174004 27 346 3.2 4.8 0.00 0.00 0.00 30 1012.0
20260501173504 27 149 3.2 4.8 0.00 0.00 0.00 29 1012.0
20260501173003 27 261 3.2 6.4 0.00 0.00 0.00 30 1012.0
20260501172504 27 323 3.2 9.7 0.00 0.00 0.00 30 1012.0
20260501172004 27 292 3.2 8.0 0.00 0.00 0.00 30 1012.0
20260501171504 27 306 4.8 11.3 0.00 0.00 0.00 29 1012.0
20260501171003 26 201 1.6 3.2 0.00 0.00 0.00 31 1012.0
20260501170504 26 299 4.8 6.4 0.00 0.00 0.00 32 1012.0
20260501170004 26 317 3.2 8.0 0.00 0.00 0.00 31 1012.0
20260501165505 26 260 1.6 3.2 0.00 0.00 0.00 32 1012.0
20260501165004 26 320 1.6 3.2 0.00 0.00 0.00 32 1012.0
20260501164505 26 311 3.2 9.7 0.00 0.00 0.00 32 1012.0
20260501164003 25 212 1.6 3.2 0.00 0.00 0.00 33 1012.0
20260501163503 25 158 3.2 4.8 0.00 0.00 0.00 34 1012.0
20260501163004 25 223 1.6 3.2 0.00 0.00 0.00 33 1012.0
20260501162503 24 223 1.6 3.2 0.00 0.00 0.00 35 1012.0
20260501162004 24 161 3.2 6.4 0.00 0.00 0.00 35 1012.0
20260501161504 24 156 1.6 3.2 0.00 0.00 0.00 36 1012.0
20260501161004 24 152 1.6 3.2 0.00 0.00 0.00 37 1012.0
20260501160511 24 159 4.8 6.4 0.00 0.00 0.00 36 1012.0
20260501160004 23 139 3.2 8.0 0.00 0.00 0.00 36 1012.0
20260501155504 23 149 3.2 6.4 0.00 0.00 0.00 36 1012.0
20260501155003 23 154 4.8 8.0 0.00 0.00 0.00 36 1012.0
20260501154503 23 149 3.2 6.4 0.00 0.00 0.00 37 1012.0
20260501154003 23 150 3.2 6.4 0.00 0.00 0.00 37 1012.0
20260501153504 23 137 3.2 6.4 0.00 0.00 0.00 38 1012.0
20260501153005 22 171 3.2 4.8 0.00 0.00 0.00 39 1012.0
20260501152504 22 158 3.2 4.8 0.00 0.00 0.00 40 1012.0
20260501152004 22 172 3.2 6.4 0.00 0.00 0.00 41 1012.0
20260501151504 22 136 4.8 4.8 0.00 0.00 0.00 41 1012.0
20260501151004 22 156 3.2 6.4 0.00 0.00 0.00 42 1012.0
20260501150504 22 166 3.2 4.8 0.00 0.00 0.00 41 1012.0
20260501150004 21 148 1.6 1.6 0.00 0.00 0.00 43 1012.0
20260501145504 21 177 1.6 3.2 0.00 0.00 0.00 43 1012.0
20260501145003 21 153 3.2 3.2 0.00 0.00 0.00 43 1012.0
20260501144504 21 116 1.6 1.6 0.00 0.00 0.00 43 1012.0
20260501144004 21 152 1.6 3.2 0.00 0.00 0.00 44 1012.0
20260501143503 21 119 1.6 1.6 0.00 0.00 0.00 44 1012.0
20260501143003 20 124 1.6 1.6 0.00 0.00 0.00 45 1012.0
20260501142504 20 130 1.6 1.6 0.00 0.00 0.00 45 1012.0